STARLINK-35693

Last updated on Tue Dec 16 2025 00:02:05 GMT+0000 (Coordinated Universal Time)

1 66490U 25263F 25349.33335648 .00047406 00000+0 11356-2 0 9999 2 66490 42.9997 110.3470 0001461 271.2328 324.7944 15.40685690 6058
UTC large
Height (km)
Speed (km/s)
/
Latitude / Longitude
Inclination (degrees)
Orbital Period (minutes)
Azimuth
Elevation
Range (km)
Doppler Factor

Next 0 passes for location: London (51.5072 / 0.1276)

Sorry there are no passes over London.